Location: Arcizac
(43.0933°N, 0.0112°E)
Time: 11:32:10
(UTC+00:00)

Cosmos 2266 Rocket - Pass Details

Date: 14 December 2019
Orbit: 933 x 1009 km, 82.9° (Epoch: 27 January)

Event Time Altitude Azimuth Distance (km) Brightness Sun altitude
Rises 19:11:40 0° 198° (SSW) 3,725 7.3 -29.4°
Reaches altitude 10° 19:14:14 10° 202° (SSW) 2,779 6.6 -29.9°
Maximum altitude 19:20:32 59° 281° (W) 1,151 4.5 -31.0°
Enters shadow 19:24:58 20° 355° (N) 2,120 5.7 -31.8°
